Location: Lawrence Hall of Science
(37.8785°N, 122.2415°W)
Time: 02:02:02
(UTC-07:00)

ARGOS - Visible Passes

Search period start: 30 April 2016 00:00
Search period end: 10 May 2016 00:00
Orbit: 821 x 834 km, 98.7° (Epoch: 29 April)

Date Brightness Start Highest point End Pass type
(mag) Time Alt. Az. Time Alt. Az. Time Alt. Az.
30 Apr 5.7 00:16:02 10° W 00:16:02 10° W 00:16:40 10° WNW visible
30 Apr 3.2 22:15:41 53° E 22:16:18 56° ENE 22:21:35 10° N visible
30 Apr 5.3 23:57:12 17° W 23:57:12 17° W 00:00:16 10° NW visible
01 May 3.8 21:56:50 34° E 21:57:52 38° ENE 22:02:50 10° N visible
01 May 4.8 23:38:21 25° W 23:38:21 25° W 23:42:35 10° NW visible
02 May 4.3 21:37:59 23° E 21:39:30 26° ENE 21:43:54 10° NNE visible
02 May 4.2 23:19:30 37° W 23:19:31 37° W 23:24:31 10° NNW visible
03 May 4.8 21:19:08 15° E 21:21:11 18° ENE 21:24:45 10° NNE visible
03 May 3.5 23:00:40 56° WSW 23:00:55 56° W 23:06:15 10° NNW visible
04 May 5.1 21:00:47 10° E 21:02:55 12° ENE 21:05:02 10° NE visible
04 May 3.0 22:41:49 72° S 22:42:22 84° WSW 22:47:48 10° NNW visible
05 May 3.1 22:22:59 56° ESE 22:23:52 66° ENE 22:29:14 10° N visible
06 May 5.4 00:04:29 14° W 00:04:32 14° W 00:07:17 10° WNW visible
06 May 3.6 22:04:08 38° ESE 22:05:25 45° ENE 22:10:32 10° N visible
06 May 5.0 23:45:39 21° W 23:45:49 21° W 23:49:53 10° NW visible
07 May 4.1 21:45:18 25° E 21:47:01 31° ENE 21:51:42 10° N visible
07 May 4.4 23:26:48 31° WSW 23:27:09 32° W 23:31:56 10° NW visible
08 May 4.6 21:26:28 17° E 21:28:40 21° ENE 21:32:39 10° NNE visible
08 May 3.7 23:07:58 46° WSW 23:08:32 47° W 23:13:45 10° NNW visible
09 May 5.0 21:07:37 10° E 21:10:23 15° ENE 21:13:15 10° NNE visible
09 May 3.2 22:49:08 60° SSW 22:49:57 71° WSW 22:55:23 10° NNW visible
